Theta_e
331 330 328 326 324 322 321 320 319 318 317 314 312 310 308 306 304 302 301 300 299 299 299 299 300 300 299 299 299 299 300 301 301 302 304 306 307 304 308 313 317 318 320 323 324 325 325 326 327 326 326 325 325 325 324 323 323 323 322 321 320 318 317 315 315 315 315 315 315 315 315 316 315 316 316 317 317 317 317 318 318 319 319 319 319
331 330 327 324 323 321 320 319 320 317 315 311 310 308 305 303 302 301 299 299 298 298 298 299 298 299 298 298 298 297 298 298 299 299 300 302 304 303 302 306 313 316 317 318 320 322 323 321 322 324 324 324 323 324 323 321 320 320 320 319 318 317 315 315 314 314 313 314 314 314 314 314 314 314 315 315 315 315 315 315 315 316 317 317 317
331 327 326 324 322 320 319 319 319 318 315 311 309 307 305 304 302 300 299 299 298 298 297 298 298 297 298 298 297 297 297 297 297 298 298 298 300 301 301 301 306 311 314 315 317 319 320 320 321 320 322 322 322 323 322 320 319 318 317 317 316 315 315 314 313 313 313 313 313 313 313 313 313 313 313 314 314 314 314 314 314 314 315 315 315
332 329 326 323 321 320 319 318 316 315 313 309 307 306 304 303 302 301 300 299 298 298 298 297 297 297 297 297 297 297 296 296 297 297 297 297 297 298 298 300 300 303 308 313 316 317 317 318 318 318 319 320 321 320 321 319 318 316 316 315 315 315 314 313 312 312 312 312 312 312 312 312 313 312 312 312 313 313 313 313 313 313 313 314 314
331 329 327 324 321 319 318 316 314 313 311 307 305 303 302 301 301 301 299 299 298 297 298 297 296 296 296 296 296 296 296 296 296 296 296 296 296 296 297 297 298 298 300 304 310 313 315 316 316 317 319 318 319 319 319 318 316 317 317 316 315 315 314 313 312 312 312 311 311 311 311 312 312 313 313 312 312 312 312 312 313 313 313 313 313
330 328 326 323 321 320 318 315 312 310 307 305 303 302 301 300 299 299 298 297 296 296 295 295 295 295 295 295 295 295 295 295 295 295 295 295 295 296 295 296 295 297 297 298 302 307 311 313 313 313 315 315 316 317 317 317 317 316 316 315 314 313 313 312 311 312 312 311 311 311 311 311 312 312 312 311 311 312 311 312 312 312 313 312 312
330 326 325 322 320 318 317 313 311 308 306 305 304 304 302 301 299 298 298 297 297 296 296 295 294 294 294 295 294 294 295 294 294 295 294 295 295 295 295 294 294 295 296 295 296 300 304 308 309 310 311 311 312 314 315 316 316 315 315 315 314 313 311 311 311 311 310 310 309 310 310 311 310 311 311 311 310 311 311 311 311 311 311 311 311
327 326 323 320 316 313 312 311 311 310 307 306 305 304 302 301 300 298 295 295 295 294 295 294 294 293 294 293 293 293 293 293 294 294 294 293 293 293 293 293 294 293 294 294 293 295 298 301 304 306 307 307 309 311 312 314 314 314 313 313 312 311 311 310 310 311 310 309 309 309 310 310 310 310 310 310 310 310 310 310 310 310 311 311 311
322 322 320 318 315 312 311 311 310 307 306 305 303 302 301 300 298 297 297 295 295 294 293 293 293 292 293 293 293 293 293 293 293 293 294 293 293 293 293 293 293 294 294 294 294 293 294 296 298 301 302 303 305 307 308 310 310 311 313 312 312 311 310 310 310 310 309 309 309 309 309 308 309 309 309 309 309 309 309 309 309 309 309 310 310
320 317 317 316 312 310 309 309 309 307 305 304 301 301 300 299 296 296 296 295 294 293 292 292 293 292 292 292 292 292 292 292 293 293 293 292 292 292 292 292 293 293 293 294 294 294 294 293 293 294 296 299 302 303 304 305 307 309 311 311 311 311 309 308 308 308 307 307 307 308 308 308 308 308 308 308 308 308 308 308 308 308 309 309 309
315 313 310 310 309 308 308 307 306 305 303 301 300 300 299 297 296 295 297 296 294 294 293 293 292 292 291 291 292 292 292 292 292 292 292 293 292 292 293 292 292 293 293 293 293 293 293 293 292 292 292 295 298 299 300 301 302 305 308 310 310 309 308 307 307 307 306 306 306 307 307 307 307 307 307 307 307 307 307 307 308 308 308 308 308
312 309 309 307 306 306 306 306 305 304 302 300 298 298 297 296 296 297 295 295 295 294 294 292 291 291 290 290 291 291 291 291 291 291 292 292 292 292 291 291 292 292 292 292 293 293 292 292 292 291 292 292 294 295 296 296 297 303 306 308 309 308 307 307 306 305 305 305 305 306 306 306 306 306 306 306 306 306 307 307 307 307 307 308 308
309 309 308 307 306 304 303 303 304 303 301 300 300 299 297 297 296 296 294 293 293 295 294 294 292 290 290 290 290 291 290 290 290 290 291 291 291 291 291 291 291 291 291 292 292 292 291 291 291 291 290 291 291 291 292 292 292 299 304 305 307 308 307 306 305 305 304 304 305 305 305 305 305 305 305 305 305 306 306 306 307 307 307 307 307
308 309 308 307 305 304 303 302 302 303 302 301 299 298 298 297 297 295 296 293 292 295 296 294 292 290 288 288 288 290 290 289 288 289 290 291 291 291 291 290 290 291 291 291 291 290 290 290 290 290 290 290 290 290 290 289 289 294 300 302 305 306 305 306 305 304 303 303 304 304 304 304 304 305 304 305 305 305 305 305 306 306 306 307 307
306 307 308 307 307 306 304 303 302 301 300 298 298 298 298 297 297 295 293 295 294 296 296 298 294 293 292 290 287 287 288 288 288 288 288 289 290 290 290 290 290 290 291 290 290 290 290 290 289 289 289 289 289 288 288 288 288 290 294 297 299 302 304 305 304 304 303 303 303 304 303 303 304 304 304 304 304 305 305 305 305 305 306 306 306
302 303 304 304 305 304 303 303 301 301 300 298 298 298 298 298 297 296 295 292 292 292 295 296 296 293 290 293 290 291 285 286 286 287 288 288 289 288 289 289 290 290 290 290 289 289 289 289 288 288 288 288 288 287 288 287 288 289 290 293 295 299 300 303 304 304 303 303 303 303 303 303 303 303 304 304 304 304 304 305 305 305 305 305 305
300 301 302 301 301 301 301 300 300 300 300 299 299 299 299 299 298 296 296 294 293 294 294 295 297 295 297 292 291 290 291 287 287 285 288 287 287 288 288 289 289 289 289 289 289 289 289 288 288 288 288 287 287 287 287 287 288 289 290 292 294 295 296 301 302 302 302 303 303 302 302 302 302 302 303 303 304 304 304 304 304 304 305 305 305
298 299 300 299 298 300 300 300 299 300 301 301 300 299 299 299 298 298 298 298 297 295 294 293 294 295 295 294 297 294 291 288 287 283 287 288 287 287 288 288 289 289 289 288 289 288 288 288 288 287 287 287 286 286 286 286 287 288 288 291 295 295 296 297 300 300 301 301 302 302 301 302 301 302 302 302 302 303 303 303 304 303 303 304 304
297 298 299 298 298 298 299 300 300 300 301 301 299 299 299 299 299 300 300 299 298 296 295 292 292 293 293 294 294 292 295 289 288 287 283 285 288 287 287 288 288 288 288 288 288 288 288 287 287 287 286 286 286 285 286 285 287 288 288 291 294 295 295 295 295 296 298 299 300 300 300 301 300 301 301 301 301 302 302 303 303 303 303 303 304
296 296 297 296 297 297 298 299 300 300 299 299 299 299 299 300 300 301 300 299 300 299 296 293 292 292 292 292 291 293 295 292 294 290 288 284 284 286 287 288 288 287 287 287 287 287 287 287 287 286 286 286 285 285 285 285 286 288 286 289 294 294 294 294 294 293 294 296 298 299 299 300 300 300 300 300 301 301 302 302 302 302 303 303 303
294 294 294 295 295 297 297 298 298 298 298 299 299 299 298 297 298 298 298 299 301 301 297 294 295 291 290 290 291 290 291 292 291 291 289 287 285 284 285 286 287 287 287 287 287 287 287 286 285 285 285 285 285 285 284 284 285 287 286 288 292 293 293 293 293 293 293 293 295 296 297 299 299 299 300 300 300 301 301 301 302 302 303 302 302
292 293 293 293 294 295 296 296 297 297 297 298 298 297 297 297 297 298 299 299 300 299 298 296 296 292 291 290 289 289 289 289 289 289 289 291 287 286 286 285 284 286 286 286 286 286 286 286 285 285 285 285 284 284 284 284 284 286 285 285 288 290 292 292 292 292 292 293 292 293 295 296 298 299 299 300 300 301 301 301 301 302 301 301 302
291 292 291 292 293 294 295 296 296 295 296 297 296 297 297 297 298 299 299 299 297 297 296 296 294 293 293 291 290 290 290 289 288 289 288 286 287 286 286 286 286 285 286 286 286 286 285 285 285 284 284 284 284 284 284 283 283 284 283 284 285 287 289 291 291 291 292 292 292 292 293 293 294 296 298 299 300 300 301 301 301 301 301 301 301
290 290 290 291 292 294 294 294 294 294 295 296 296 297 297 297 297 297 297 297 296 295 294 293 293 292 292 292 292 293 292 291 291 291 290 288 288 286 285 285 284 285 286 285 286 285 285 284 284 284 284 284 283 283 283 283 283 282 283 282 284 285 287 289 291 291 291 291 291 291 292 292 292 293 295 297 299 300 301 300 300 301 301 300 300
290 290 290 291 291 291 292 292 293 294 295 295 296 296 295 295 295 296 295 294 293 293 292 292 292 290 290 292 291 291 291 292 292 290 290 290 289 286 286 286 283 284 285 284 284 284 284 284 284 283 283 283 283 283 283 283 282 282 282 282 283 283 284 286 289 290 290 290 290 290 291 291 292 293 294 296 297 299 299 299 299 300 300 300 299
291 291 290 290 291 292 293 293 294 294 294 295 294 294 294 294 294 293 292 291 292 292 292 292 291 292 291 290 290 290 289 290 289 289 288 288 287 286 285 284 284 284 285 284 285 282 284 283 283 283 283 283 283 283 283 282 282 281 281 281 282 282 283 285 288 289 289 289 290 289 289 290 291 292 293 294 295 297 298 298 299 299 299 299 299
292 292 290 291 292 292 293 293 293 293 293 292 292 292 293 292 291 290 289 290 290 290 290 290 290 290 291 290 289 289 288 289 288 289 289 288 287 287 285 283 282 282 281 284 284 284 284 283 283 283 283 283 283 283 282 282 281 281 281 282 282 281 282 285 287 288 288 288 288 289 289 289 290 291 292 291 293 293 295 296 297 297 298 298 298
293 292 291 292 291 291 292 292 291 291 291 291 290 290 291 290 289 288 287 289 289 289 289 289 289 290 289 289 288 287 287 287 288 287 286 287 287 286 286 285 283 281 283 281 282 282 285 282 283 283 282 282 282 283 281 281 282 280 281 282 282 282 282 284 286 287 287 287 287 288 288 289 289 290 290 290 290 290 291 292 292 293 293 293 294
292 291 290 291 291 291 290 290 289 289 289 289 289 289 289 289 288 287 287 288 288 288 288 289 289 288 288 288 287 286 286 286 286 286 286 285 286 286 286 284 284 282 281 280 282 281 284 283 281 283 282 282 282 282 282 281 281 280 281 281 281 282 281 283 285 286 286 287 287 287 288 288 289 289 289 289 289 290 291 291 291 292 292 292 293
291 290 290 289 289 288 288 288 288 288 288 288 288 288 288 288 288 287 287 288 288 288 288 288 287 287 287 287 286 286 285 285 285 285 285 285 284 285 284 284 285 282 282 280 281 284 282 283 283 282 283 282 282 281 282 281 280 279 280 281 281 281 281 282 283 284 284 286 286 287 287 288 288 288 288 289 289 290 290 290 290 291 291 291 292
289 289 288 288 287 287 287 287 287 287 288 287 287 287 288 287 287 286 287 288 287 286 286 286 286 286 285 285 286 285 285 285 284 284 284 284 284 284 284 284 284 283 282 281 279 282 283 282 282 282 281 281 281 281 281 281 280 279 280 280 281 281 281 281 281 282 283 284 284 285 286 287 287 288 287 287 288 289 289 289 289 289 290 289 291
289 289 288 287 287 286 287 287 287 287 286 286 287 287 287 287 287 286 286 286 286 285 284 285 285 285 284 284 284 284 284 283 282 282 282 283 283 283 283 283 283 282 282 281 279 280 283 282 282 282 281 280 281 280 280 280 280 279 280 280 280 280 281 281 281 281 282 283 284 285 285 286 287 286 286 286 287 287 288 288 288 288 288 288 289
288 288 287 287 287 287 286 286 286 285 285 285 286 286 287 286 286 285 285 285 284 284 284 283 283 284 284 283 283 283 282 281 281 282 282 282 281 282 282 282 282 281 281 280 279 279 282 282 281 281 281 280 279 281 279 279 280 280 280 280 280 280 281 281 281 281 281 282 283 284 284 285 286 286 286 285 286 286 286 288 287 286 286 287 287
288 287 287 287 286 286 286 285 285 285 285 285 285 286 285 284 284 285 284 284 284 283 283 282 282 283 283 282 281 281 281 281 281 281 281 280 281 281 281 280 281 281 281 280 279 279 279 281 280 281 280 280 278 281 279 278 278 279 279 279 280 280 280 280 281 281 281 281 282 283 283 284 284 285 285 284 285 285 286 286 285 285 285 285 285
287 287 287 286 286 286 285 285 285 285 285 285 285 285 285 284 283 283 284 284 283 282 282 282 282 282 281 281 280 279 280 280 280 280 281 280 281 280 280 281 280 280 280 280 279 278 278 279 281 279 279 279 278 278 279 279 279 279 278 279 279 280 280 281 280 280 280 281 282 282 282 282 283 283 283 283 284 284 284 284 284 284 284 284 284
286 286 286 286 286 285 285 285 285 285 284 284 284 285 285 284 284 283 283 283 282 282 281 281 281 280 280 279 279 279 279 279 279 280 280 280 280 280 280 280 280 279 280 279 279 279 278 277 279 279 279 278 278 279 279 279 278 278 279 279 280 280 280 281 280 280 279 280 281 280 280 281 282 282 282 283 283 283 283 283 283 283 283 282 282
286 285 285 285 285 285 284 284 284 284 284 284 284 284 284 284 283 283 282 282 282 282 281 281 281 279 279 279 279 279 280 279 280 280 280 280 280 280 280 280 280 280 279 279 279 279 278 277 278 279 279 278 278 278 279 277 278 279 279 279 279 279 279 280 280 280 278 278 279 279 279 280 281 281 282 282 282 282 282 282 282 282 281 281 281
284 284 284 284 284 284 284 285 284 284 284 284 283 283 283 282 282 282 282 282 282 281 281 280 279 279 279 280 280 280 280 280 281 281 280 280 280 280 279 280 280 279 279 279 279 278 278 278 278 277 278 277 277 278 279 278 277 277 278 279 279 279 279 278 278 279 279 278 277 278 278 278 279 280 280 281 281 281 281 281 281 280 280 280 281
283 283 283 283 284 284 284 284 284 283 282 282 281 281 281 281 281 281 281 280 280 280 279 279 278 278 279 280 280 280 280 281 281 281 280 280 280 279 280 279 279 279 278 279 278 278 278 277 278 278 277 278 277 276 278 279 278 278 276 277 277 278 278 277 276 278 278 278 278 278 278 277 278 278 279 280 280 280 280 280 280 279 279 280 282
283 283 283 283 284 284 284 283 283 282 281 280 280 280 280 281 280 280 280 279 278 279 279 278 278 279 280 280 280 280 281 282 282 282 281 280 280 279 280 279 279 278 278 278 278 278 277 277 277 277 277 277 277 278 279 278 277 277 278 277 275 275 276 277 277 276 277 277 276 276 276 277 277 277 278 278 278 279 279 278 278 278 278 280 282
283 283 283 283 283 283 283 282 281 281 280 280 280 280 280 281 281 280 279 279 278 278 278 277 278 279 280 280 279 280 281 282 282 282 282 282 280 279 280 279 279 278 278 278 278 278 277 277 276 277 276 276 277 277 277 277 277 276 277 277 275 276 276 275 276 277 277 276 275 275 275 275 275 275 276 276 277 277 277 277 277 277 279 281 282
284 284 283 283 283 283 282 281 281 280 280 279 281 283 283 281 280 280 279 279 279 278 277 277 278 279 279 279 280 281 281 281 281 281 281 281 281 281 280 280 279 278 278 277 277 277 277 276 276 276 275 275 276 277 277 277 278 277 276 276 274 275 275 274 275 276 277 275 274 273 274 275 274 274 275 274 276 276 276 276 276 277 279 281 282
284 284 283 283 282 282 282 281 280 280 279 279 282 284 284 283 280 280 279 279 278 278 278 278 279 279 279 280 280 280 280 280 280 280 281 281 281 281 281 281 280 279 277 276 276 277 276 276 276 275 275 275 276 277 277 277 277 276 275 275 274 274 273 271 270 274 278 275 274 272 272 274 274 273 273 274 275 276 276 276 277 278 279 281 281
283 283 283 282 282 282 281 281 280 279 279 282 284 285 285 284 282 280 280 280 279 278 278 279 280 280 279 279 279 279 279 280 280 280 280 281 281 281 281 280 280 280 280 278 276 275 275 275 275 275 275 275 276 277 277 277 276 276 276 275 274 273 272 271 271 270 275 276 273 271 271 274 274 273 273 273 275 275 275 276 278 278 280 280 280
283 282 282 281 281 281 281 280 279 279 279 283 284 285 285 285 284 281 280 280 279 279 279 279 280 280 280 280 279 279 279 280 280 280 281 280 281 281 281 280 280 280 280 280 280 278 277 275 275 274 275 276 276 277 278 277 277 275 275 274 273 273 272 271 271 272 273 275 272 271 270 272 273 273 272 273 274 274 275 276 277 278 279 279 280
282 282 282 281 281 281 281 280 280 279 279 282 285 285 285 286 286 283 281 280 280 279 279 279 280 280 280 280 280 279 280 280 280 280 280 281 281 281 280 281 280 281 281 281 280 279 278 277 276 274 276 278 276 278 278 278 276 274 274 273 273 272 271 271 272 272 273 274 271 270 268 271 273 272 271 273 274 274 274 276 277 278 278 278 279
282 282 281 281 281 281 281 281 280 279 279 283 285 285 286 286 286 285 281 280 281 281 281 280 280 280 281 281 281 281 280 280 280 280 280 280 280 280 280 280 281 281 281 281 280 280 279 278 277 277 278 279 279 279 278 278 277 276 275 274 273 273 272 272 272 272 272 274 273 270 266 270 272 271 271 272 273 273 274 275 276 277 277 278 278
283 282 282 282 282 282 282 280 280 279 279 283 284 285 286 287 287 285 283 281 281 281 280 280 280 281 281 282 281 281 281 280 280 281 280 280 279 277 276 278 279 280 280 281 282 282 281 281 280 279 279 280 280 279 278 277 277 277 276 275 274 272 270 269 269 270 270 273 273 270 268 268 272 270 270 272 272 272 273 273 275 276 277 278 278
282 282 282 282 282 282 281 280 279 279 279 282 284 285 286 287 287 286 285 283 281 281 280 281 281 281 281 281 281 281 281 280 281 282 282 280 277 275 274 274 275 275 276 278 279 281 281 281 282 282 282 281 281 280 280 281 279 277 275 272 270 271 269 268 269 269 269 271 272 272 269 267 270 270 269 271 271 270 271 272 273 275 276 277 277
282 283 283 282 282 281 280 279 279 279 279 280 283 285 286 287 286 286 286 284 282 281 280 281 281 281 281 281 281 280 280 280 281 282 282 280 277 275 274 273 272 272 273 275 275 276 279 280 281 281 281 281 281 281 282 282 281 279 275 271 272 271 269 269 267 268 269 270 270 272 268 268 269 270 268 269 270 270 271 272 273 272 274 275 276
283 283 282 281 280 280 280 280 281 280 280 281 283 284 285 286 286 286 285 285 283 282 281 280 280 280 280 280 280 279 279 279 280 281 282 281 278 276 274 273 271 271 272 274 274 274 275 276 277 278 278 279 279 279 279 279 278 276 276 274 273 270 268 268 268 267 266 269 271 271 267 268 267 269 268 266 265 268 271 271 271 271 271 272 272
Wind_Speed
7 8 6 6 6 6 5 5 5 4 5 5 7 7 6 7 6 6 6 7 7 7 7 7 6 7 8 8 8 8 7 7 7 8 8 8 9 14 21 21 20 20 21 21 23 23 22 23 23 23 23 24 26 25 26 27 27 27 26 26 26 25 24 24 24 24 24 24 24 25 24 24 24 24 24 25 25 25 25 26 26 26 27 27 27
8 7 6 7 7 6 6 5 4 4 5 7 6 6 7 8 7 7 6 7 8 7 7 7 7 7 8 8 8 8 7 7 7 7 7 8 8 11 20 21 19 20 21 21 22 22 22 21 21 22 23 24 23 24 25 25 25 26 26 26 25 24 24 24 24 24 23 23 24 24 24 24 24 24 24 24 24 24 24 24 24 25 26 27 27
8 9 7 8 8 8 7 6 4 4 4 6 5 6 7 8 7 7 6 8 8 6 7 7 7 8 8 8 7 7 7 7 7 7 8 7 7 8 12 20 21 21 21 22 22 22 22 22 21 21 22 23 24 23 24 25 25 25 24 24 23 23 23 24 24 24 23 23 23 23 23 23 22 23 23 23 23 23 24 23 23 24 23 23 24
11 10 10 9 9 10 9 8 7 4 5 6 6 6 8 8 7 6 7 8 8 7 6 7 7 8 7 8 7 7 7 7 7 8 7 7 6 7 7 10 18 21 22 22 22 23 22 23 23 23 22 23 22 23 22 23 22 23 22 22 22 22 22 23 22 22 22 22 22 22 22 22 23 23 23 23 23 23 23 24 23 24 25 25 24
10 10 10 10 10 10 10 9 7 6 4 7 8 7 8 8 7 6 7 8 9 7 6 7 8 8 8 8 7 8 7 7 7 7 7 7 6 6 6 7 8 15 21 21 22 23 23 23 23 23 23 23 22 22 21 22 22 21 21 21 21 22 22 22 22 22 22 22 23 23 23 23 23 23 23 23 23 23 23 24 23 24 25 25 25
10 9 10 10 9 10 12 10 8 9 8 8 7 7 7 9 8 8 8 8 8 7 7 8 8 7 8 7 7 7 6 7 6 6 6 7 6 7 6 6 6 7 9 19 22 21 22 23 23 23 23 23 23 22 21 21 21 21 22 22 22 22 22 22 22 23 23 23 23 23 23 23 23 23 23 23 23 23 23 23 23 23 23 24 24
12 11 10 10 12 12 13 10 8 9 8 7 7 7 8 9 8 9 8 7 7 7 7 8 8 8 7 6 7 6 7 7 6 6 7 7 7 7 6 6 7 7 8 8 14 20 21 22 23 24 24 23 23 23 22 22 22 22 22 22 22 22 22 22 23 23 23 23 23 23 23 24 24 23 23 24 24 24 24 24 24 24 24 24 25
11 11 8 7 8 7 8 9 10 7 6 7 7 8 8 8 8 8 9 8 8 8 7 8 8 8 7 7 6 6 7 6 6 7 6 6 7 7 6 7 8 8 8 7 8 12 20 21 22 23 23 23 23 23 23 22 22 22 21 21 21 22 22 23 23 23 23 23 23 23 23 24 24 24 24 24 24 24 24 25 24 24 25 25 25
7 8 11 10 9 7 8 10 10 9 7 6 5 5 8 8 8 7 8 9 9 9 8 7 8 8 7 8 6 6 6 5 6 6 5 6 6 6 7 8 8 8 6 6 6 7 14 18 21 22 22 22 23 23 23 23 22 22 21 21 22 22 22 22 23 23 23 23 23 22 23 23 23 23 23 24 24 24 24 24 24 24 25 25 25
9 8 7 9 9 9 7 8 9 9 8 7 6 5 6 8 10 7 8 9 9 9 9 8 7 7 8 7 6 6 5 5 5 5 5 6 6 7 7 6 6 6 5 6 6 6 6 10 14 18 21 21 22 23 23 23 23 22 22 22 22 22 22 22 22 22 22 22 23 23 23 23 24 24 24 24 24 24 25 25 25 25 25 25 25
7 8 7 7 9 9 9 7 6 7 7 7 7 6 6 7 10 10 8 8 9 8 8 8 8 8 8 8 7 7 6 5 5 5 5 5 6 6 6 6 5 5 5 6 6 6 7 7 7 7 10 20 20 22 23 24 23 21 21 21 20 20 20 21 21 21 21 21 22 22 22 23 23 23 24 24 24 24 25 25 25 25 25 25 26
6 6 9 7 8 8 9 7 7 7 9 9 8 6 8 11 11 11 11 9 8 8 8 9 10 10 9 8 8 8 8 6 6 5 5 5 5 5 5 4 5 5 6 6 6 7 7 7 7 7 7 11 18 19 21 21 21 20 21 20 20 20 20 20 21 21 21 21 21 22 22 22 22 23 23 23 24 24 25 25 25 26 25 26 26
7 7 9 10 8 9 8 7 6 8 8 9 11 9 8 9 10 9 12 12 8 7 8 8 10 9 8 9 8 8 7 7 7 6 6 5 4 4 4 4 5 5 6 6 7 7 7 7 7 7 7 7 8 13 16 17 18 18 20 21 20 20 21 21 21 20 21 22 22 22 22 22 22 22 23 23 23 24 24 25 25 25 26 26 26
7 8 9 10 10 10 10 10 8 8 8 9 8 8 9 10 10 10 7 10 9 8 7 7 6 8 9 7 7 6 6 7 7 6 5 5 4 4 4 4 5 4 4 5 6 7 7 7 6 7 7 7 7 7 8 10 12 17 19 22 21 21 21 21 21 21 21 22 22 21 21 22 22 23 23 23 24 24 25 25 25 25 26 26 26
5 7 8 9 10 10 9 10 9 9 10 9 9 10 10 11 12 12 10 6 6 3 3 4 6 7 7 8 6 6 5 5 6 6 5 4 4 4 4 4 4 3 3 4 5 6 6 6 6 7 7 6 6 7 7 8 10 13 16 21 21 20 20 20 21 21 22 22 22 22 22 22 23 23 23 24 25 25 25 26 26 26 26 26 27
4 5 4 7 9 9 8 8 7 7 10 12 10 10 11 10 9 9 11 11 7 5 1 3 4 10 7 2 6 4 5 4 5 4 4 4 4 4 3 3 3 3 3 4 5 5 5 5 6 6 6 6 6 6 6 7 10 10 12 18 19 20 20 20 21 22 22 22 22 22 22 23 24 24 25 25 26 26 26 26 26 27 27 27 27
5 5 7 7 6 8 9 8 10 8 7 9 10 11 11 10 11 11 11 12 10 6 3 3 3 3 1 6 3 4 3 7 7 5 4 3 3 4 3 3 3 3 3 4 4 4 4 5 5 5 5 6 6 6 6 8 7 8 9 14 19 19 19 20 21 21 22 22 23 23 23 23 24 25 25 26 27 27 27 26 27 27 27 27 27
5 7 7 7 8 8 9 10 8 8 8 9 9 9 10 10 10 10 10 8 10 8 5 3 1 2 4 4 3 2 5 8 7 4 3 2 3 3 3 3 2 3 3 4 4 4 4 4 4 5 5 5 6 6 6 7 7 7 9 12 20 19 19 19 20 21 21 22 22 23 23 24 24 25 26 26 26 27 26 27 27 27 27 27 27
6 7 8 6 8 7 8 9 10 9 7 8 9 10 9 9 8 8 8 8 9 9 8 7 4 2 1 1 1 1 3 9 5 7 5 5 3 3 3 3 3 3 3 3 3 3 3 3 3 4 5 5 5 6 6 7 7 7 12 18 18 19 19 19 18 19 20 21 22 22 23 23 24 24 25 25 26 26 26 26 27 27 27 28 28
6 6 7 8 7 7 6 6 7 6 7 8 9 8 8 5 7 5 6 7 9 8 9 8 9 5 3 3 3 3 3 3 2 4 4 7 5 3 3 2 3 3 3 3 3 3 3 3 3 3 4 5 5 6 6 7 6 7 8 18 18 18 18 18 18 18 19 20 21 21 22 23 23 24 24 25 25 26 26 26 27 27 27 28 29
4 5 6 6 6 8 8 7 7 8 7 7 7 8 10 10 8 7 8 8 7 6 8 9 7 6 6 4 4 4 3 2 1 1 3 5 5 7 6 4 3 3 3 3 2 3 3 3 3 3 3 4 5 5 6 6 6 7 9 17 18 18 18 18 17 18 18 19 20 21 22 22 23 24 24 25 25 26 26 26 27 28 28 28 28
4 5 6 6 6 7 7 9 9 9 7 7 7 8 8 8 9 9 8 8 6 6 7 7 5 6 6 6 6 5 5 4 3 3 1 1 3 7 6 6 5 4 3 3 3 3 3 2 3 3 3 4 5 5 5 5 6 7 10 15 16 17 18 17 17 18 18 18 19 20 21 22 23 24 24 25 25 25 26 27 27 28 28 28 28
5 5 4 7 6 7 8 8 7 7 7 8 9 9 9 9 8 8 8 8 6 5 4 5 5 6 6 6 6 7 5 6 6 6 4 4 4 5 4 4 2 4 4 3 3 3 2 2 2 2 3 3 4 4 5 5 4 9 13 12 14 16 17 17 17 17 17 18 18 19 21 21 22 23 24 24 25 25 26 26 27 28 28 29 29
5 5 5 6 6 6 5 6 6 7 8 8 8 8 8 7 7 7 6 4 4 5 5 5 6 5 4 3 3 2 1 2 4 4 4 3 4 4 5 4 1 2 3 3 3 2 2 2 2 2 2 2 3 4 4 4 4 10 11 11 12 14 16 16 16 16 17 17 18 19 20 20 21 22 23 24 25 25 26 26 27 28 28 28 29
7 7 6 9 7 7 7 7 7 7 8 7 7 7 6 6 5 5 4 5 5 5 5 5 5 5 4 2 2 2 3 3 3 3 2 2 2 4 3 4 3 5 4 3 2 2 2 1 2 1 1 2 2 3 4 4 4 8 13 9 11 12 14 16 16 17 17 17 18 18 19 20 21 22 23 24 25 25 26 26 27 28 29 29 29
9 8 7 8 7 6 7 7 6 6 6 6 6 5 5 5 5 5 5 4 4 4 5 5 4 4 3 4 3 4 4 4 4 3 3 3 3 3 4 3 2 3 4 4 4 3 3 3 2 1 0 1 2 3 4 4 4 9 13 9 8 10 12 15 17 17 17 17 18 18 18 19 21 22 23 24 24 25 26 26 27 27 28 29 29
8 7 8 8 8 7 7 6 6 6 6 6 5 6 5 5 5 6 5 4 5 5 5 5 5 5 5 5 5 5 4 3 3 3 2 1 1 1 3 3 4 4 4 4 4 6 2 3 4 2 1 0 2 2 4 4 4 10 11 7 6 8 11 15 16 16 16 17 17 17 18 18 20 21 22 23 24 24 25 25 26 27 28 29 29
7 8 8 8 8 8 7 6 6 6 6 6 7 6 6 6 6 6 6 3 6 7 5 5 6 6 6 5 5 5 4 3 2 2 2 2 1 1 1 3 3 3 4 4 4 3 5 3 3 4 2 1 2 2 2 3 4 11 8 6 6 6 10 15 16 15 16 16 16 16 17 18 19 21 22 22 23 23 24 25 26 26 27 27 28
6 7 8 7 7 8 7 7 6 6 7 6 6 7 7 7 6 7 7 6 6 6 5 5 5 5 5 5 4 4 4 3 3 2 2 1 1 1 1 1 2 4 3 4 4 4 4 4 2 4 4 1 2 3 3 3 4 7 6 6 6 6 9 15 14 14 16 16 15 16 17 18 19 20 21 21 22 24 24 25 25 25 26 27 27
6 6 8 8 7 7 7 7 6 7 7 6 7 7 7 6 7 6 6 7 7 5 5 5 5 5 5 4 4 4 4 3 3 2 2 2 2 1 0 1 1 2 3 4 3 1 2 3 2 2 3 0 2 2 2 3 3 7 6 7 7 6 12 14 12 13 15 16 15 16 17 18 19 20 20 21 22 23 24 24 25 25 26 26 26
7 7 8 8 7 7 6 7 7 7 7 7 7 7 7 7 6 6 6 6 6 6 5 5 5 5 6 6 4 5 4 4 3 3 2 2 2 1 1 1 0 1 2 3 4 0 3 2 3 2 1 2 2 2 2 3 3 6 6 6 7 10 14 9 10 12 14 15 15 16 17 18 19 19 20 21 22 23 23 24 24 25 25 25 25
7 8 8 9 9 9 7 7 8 7 8 7 7 7 7 6 6 6 6 6 7 7 6 4 4 5 6 6 5 5 5 4 4 3 3 2 2 1 2 1 1 1 1 3 4 4 2 1 1 1 1 2 3 3 4 3 3 5 5 6 8 11 7 6 8 10 13 14 15 16 17 18 18 20 21 21 22 22 23 23 24 24 24 24 24
8 8 7 9 9 8 9 8 8 8 8 8 7 7 6 7 6 6 7 7 8 6 6 6 4 5 6 6 6 5 5 5 4 4 3 3 3 2 2 2 2 2 2 3 4 5 1 3 1 2 1 2 4 3 4 4 5 5 5 6 7 7 6 6 6 8 12 14 15 16 16 17 18 19 20 20 21 21 22 23 23 23 23 23 23
8 7 8 7 8 9 8 8 8 8 8 7 7 6 7 8 7 5 6 7 8 7 7 7 6 4 5 6 5 5 5 4 4 4 4 4 4 3 3 2 2 2 2 2 3 4 5 2 2 1 1 2 4 3 3 5 6 6 6 6 5 6 6 6 5 5 10 13 14 15 15 17 18 19 19 19 19 20 21 22 21 21 21 21 21
7 6 7 8 9 9 9 8 8 8 8 8 7 7 8 9 9 7 6 7 8 8 8 7 7 5 6 5 5 5 4 4 4 3 4 4 4 4 3 2 3 2 2 3 3 4 5 4 2 3 2 2 4 5 5 5 6 6 7 6 5 5 5 6 6 5 8 13 13 13 14 16 18 18 18 18 18 19 20 20 20 21 21 20 20
9 7 8 9 9 10 9 9 9 8 9 8 7 7 8 9 8 9 8 7 6 6 7 7 7 7 6 5 5 6 5 5 5 4 4 4 4 4 4 3 3 3 2 3 4 4 4 4 3 2 3 4 4 4 5 5 6 6 6 6 6 6 6 6 6 6 6 12 13 12 13 16 18 17 18 18 18 19 19 20 20 20 19 18 19
9 9 9 9 10 10 9 10 10 9 9 9 9 8 7 7 8 8 8 7 7 7 6 6 6 6 6 5 6 6 7 6 6 5 5 6 5 4 4 4 3 3 3 3 4 4 4 5 5 3 2 4 4 5 5 6 6 7 7 7 5 5 6 5 6 5 7 8 12 10 11 15 17 17 18 17 17 18 19 19 19 19 18 17 19
10 9 10 9 9 10 10 10 10 10 9 9 8 8 8 7 7 7 8 7 7 6 5 5 5 5 5 6 7 7 7 8 7 6 6 7 6 5 5 4 4 4 4 4 4 4 4 5 5 5 4 4 5 5 5 5 6 7 6 5 5 5 5 5 6 5 4 4 4 6 7 10 14 17 17 17 17 17 17 19 19 17 16 18 20
10 9 9 9 9 11 11 10 10 10 9 7 7 8 8 8 8 8 8 7 7 5 5 5 5 5 5 6 6 7 8 8 7 8 7 7 6 6 6 6 5 5 5 4 4 4 5 5 5 5 5 5 5 6 5 5 7 7 6 6 5 4 4 5 6 6 5 5 5 7 10 11 14 14 15 16 16 15 16 18 18 17 16 19 21
10 10 11 11 9 9 8 8 9 8 7 7 7 8 8 9 8 8 7 7 6 5 6 5 6 6 7 6 6 7 8 8 8 8 8 7 6 7 6 6 6 6 6 5 5 5 4 4 5 5 5 5 5 6 5 5 6 5 4 4 7 6 6 5 6 8 6 5 5 4 7 8 8 13 15 14 13 13 16 15 15 15 17 20 21
8 9 9 9 11 10 9 9 9 7 8 8 7 9 10 9 8 8 8 7 7 7 6 6 6 6 6 7 7 8 9 9 10 7 8 7 7 6 6 7 7 7 6 4 4 4 4 4 5 5 5 6 6 5 5 5 5 5 4 5 7 6 6 7 7 7 6 5 5 5 6 8 8 8 9 9 8 11 11 13 12 14 18 21 22
10 10 10 10 10 11 11 10 9 8 6 6 12 15 10 9 10 7 7 7 7 7 7 7 7 7 8 7 7 10 9 9 9 9 8 9 9 6 7 8 8 6 6 6 5 5 4 5 5 4 5 6 6 6 6 6 5 5 5 5 6 6 6 7 7 4 3 5 6 7 6 6 8 7 7 9 8 8 8 8 8 13 18 22 22
11 10 10 11 10 9 11 11 11 8 4 8 16 17 16 14 10 8 8 8 7 7 7 8 8 9 8 8 7 7 8 9 10 11 12 12 12 12 10 9 9 8 7 7 6 6 6 5 5 5 6 7 7 6 6 5 5 5 4 5 5 6 6 6 7 5 2 4 8 9 8 6 7 7 7 8 9 8 8 8 15 19 20 21 21
9 10 11 10 9 9 8 8 8 8 7 12 18 18 18 18 14 9 8 8 8 7 8 8 8 8 8 8 7 6 8 10 9 9 12 14 14 15 15 13 13 13 10 8 6 6 6 6 6 7 6 8 7 6 6 5 5 4 5 5 5 6 6 6 6 7 6 8 10 10 10 4 6 7 7 6 8 8 9 13 17 18 20 21 21
9 11 10 9 9 8 9 10 9 7 7 14 18 19 19 19 19 11 7 8 7 7 8 9 10 9 8 8 8 7 7 11 9 9 9 10 14 16 14 14 15 16 15 16 13 7 5 6 7 7 8 6 7 7 6 5 4 6 5 5 5 6 7 8 8 8 8 8 10 10 10 7 6 6 7 7 7 9 10 11 16 18 19 21 22
8 7 6 9 9 10 10 9 7 5 7 13 18 19 19 19 19 14 7 9 8 8 10 10 9 10 10 10 9 8 8 9 9 10 9 9 9 10 11 11 11 13 17 17 17 16 12 8 8 8 8 8 8 6 5 5 6 6 6 8 7 7 8 9 10 11 10 7 8 9 10 5 4 7 8 7 6 9 10 13 17 17 18 20 22
8 7 7 7 8 7 8 7 7 8 10 14 17 19 19 19 18 15 6 8 8 10 10 10 9 10 10 10 10 9 9 10 10 12 11 10 8 8 9 10 11 10 11 13 13 12 12 11 11 11 9 9 9 9 7 6 7 7 8 8 7 8 8 9 11 11 9 7 7 5 8 7 6 8 8 7 8 8 9 13 15 15 17 20 23
5 6 6 6 8 8 8 9 10 11 8 15 17 18 18 19 19 11 8 9 10 9 9 9 9 8 9 9 9 10 10 10 12 17 13 9 7 9 9 8 8 9 9 10 12 13 12 11 11 11 10 10 10 7 7 6 6 7 6 5 4 5 7 9 10 6 6 5 5 6 8 8 6 8 9 8 8 9 9 9 11 12 17 22 22
8 8 8 8 8 8 10 9 9 9 7 12 17 18 19 20 14 7 8 8 8 9 10 9 8 7 7 8 9 8 9 9 12 17 17 14 7 10 11 9 7 7 9 8 13 16 16 15 15 15 15 14 13 14 15 15 10 7 5 5 6 5 7 10 9 6 6 3 4 6 7 8 6 8 11 8 8 10 9 8 6 11 20 21 21
10 8 8 7 6 7 10 10 9 8 8 11 18 18 18 17 14 9 9 7 7 7 8 8 6 6 9 9 9 9 8 9 11 17 18 14 8 10 9 8 8 9 10 8 6 9 17 19 20 20 19 18 19 18 18 18 17 12 7 8 7 5 9 10 9 7 7 5 6 3 4 6 7 7 10 9 9 6 5 6 6 10 16 16 19
7 5 6 5 6 7 7 8 10 11 8 9 16 16 17 17 15 9 8 7 7 8 7 7 7 7 8 9 13 11 10 7 11 16 19 16 9 8 9 7 9 11 12 9 9 7 7 9 12 13 14 16 15 13 9 11 11 10 8 6 5 6 8 9 7 6 7 4 1 1 5 6 7 6 7 10 8 4 4 3 8 9 9 12 13
Wind_Direction
156 157 142 129 115 113 110 104 99 87 102 103 105 107 99 96 93 93 90 91 84 76 76 76 76 75 76 75 74 72 67 66 62 57 58 60 51 31 27 25 52 55 59 54 54 53 55 57 59 61 59 57 56 54 54 53 51 50 49 50 47 45 42 40 38 37 35 33 31 30 28 26 25 23 22 21 18 16 14 12 9 9 7 5 5
156 147 134 121 116 105 96 100 110 107 109 111 115 115 113 105 102 100 101 96 88 84 86 80 74 72 71 73 71 71 69 66 62 63 68 64 58 51 32 29 34 64 61 60 58 56 55 57 60 59 59 58 56 54 55 53 50 49 48 47 46 43 42 40 38 37 34 32 30 28 26 24 22 21 20 18 16 15 13 10 8 6 4 3 1
149 143 130 134 134 132 125 119 99 75 97 109 109 108 110 108 111 113 108 101 94 89 89 86 80 74 69 68 70 70 67 63 62 62 63 63 66 61 49 38 36 38 58 61 60 58 56 56 56 56 56 55 55 53 53 53 52 49 47 46 44 41 39 38 35 33 31 30 28 26 23 21 19 18 16 15 13 12 10 9 6 5 3 1 359
156 154 152 152 149 143 135 132 121 106 115 114 116 101 98 98 98 100 102 101 99 93 88 89 82 77 71 68 65 66 63 62 61 57 58 62 66 69 64 60 46 44 41 55 60 59 60 59 58 56 56 55 55 53 53 53 52 52 47 45 43 40 38 36 33 30 28 27 24 23 21 19 17 15 14 12 10 9 7 5 4 2 360 358 356
157 155 156 150 143 143 144 133 129 133 126 121 116 107 108 110 105 104 99 95 94 91 87 86 81 75 70 68 68 63 59 62 62 59 56 57 58 57 60 59 64 53 46 43 53 59 59 59 59 57 54 55 53 53 53 50 48 48 46 43 40 38 36 33 31 28 26 24 22 20 18 17 15 13 11 10 8 6 5 3 1 360 357 355 354
156 155 154 150 147 149 148 143 140 137 131 129 124 123 116 116 116 109 102 100 101 98 95 88 83 79 73 68 68 65 67 66 62 58 59 58 55 53 52 49 50 55 56 45 40 47 54 56 56 56 55 52 51 50 50 49 46 43 43 40 38 35 32 30 27 25 23 21 19 17 15 13 12 11 8 7 5 3 2 360 358 357 355 353 351
159 154 154 148 156 156 153 145 132 137 139 146 136 127 123 123 124 116 108 101 96 93 92 89 85 79 75 74 72 70 69 67 61 60 58 58 55 53 49 50 47 47 49 57 47 41 47 51 52 51 51 50 48 48 46 45 44 41 39 37 35 31 28 26 24 22 19 17 15 13 12 10 9 7 6 4 2 1 359 357 355 353 351 350 348
155 147 139 136 134 130 132 140 141 145 148 147 139 129 125 118 112 117 115 107 104 98 93 91 85 81 76 74 72 71 74 69 62 60 54 58 57 54 54 49 46 43 43 55 60 46 46 49 49 47 47 46 46 43 42 41 39 38 35 33 31 29 25 23 21 19 17 15 13 12 11 9 7 6 4 3 1 359 357 354 353 351 349 347 345
124 132 145 141 136 134 137 148 148 146 142 135 114 114 123 121 111 108 116 116 108 105 101 97 92 86 82 75 71 74 73 69 71 70 64 62 63 61 56 51 46 40 46 46 52 59 47 48 49 45 42 43 44 42 39 36 34 31 30 29 26 25 23 21 19 17 16 14 12 12 10 8 6 5 3 1 359 357 355 353 352 350 348 346 345
141 131 130 137 134 135 139 147 143 140 139 130 114 102 117 122 116 115 122 122 119 116 111 103 96 90 81 76 77 77 76 74 74 73 71 70 64 61 59 58 53 48 48 49 49 47 49 50 52 50 42 40 40 39 36 31 27 26 24 25 24 22 21 19 17 16 14 13 11 10 8 6 4 3 1 359 357 356 354 352 351 349 347 345 343
130 129 121 129 131 131 139 135 123 122 119 118 113 113 115 120 123 126 121 115 120 116 113 107 101 95 89 83 79 74 71 70 72 71 72 69 68 65 62 58 59 51 51 51 50 49 45 43 41 43 43 37 38 36 33 28 22 24 23 23 22 20 20 18 18 16 13 12 10 9 8 6 3 1 359 358 356 354 353 351 349 348 346 345 343
128 123 129 127 129 132 129 133 134 130 133 128 132 132 132 128 129 129 119 109 109 117 120 114 103 95 91 83 77 74 72 72 71 70 69 63 61 61 63 62 58 54 50 49 47 45 45 42 41 38 37 38 37 34 31 27 20 23 23 20 20 19 17 18 17 16 13 11 9 9 7 5 1 359 358 357 354 353 351 350 349 347 346 344 342
132 137 137 138 133 130 124 123 127 135 134 137 141 137 138 131 128 126 128 125 125 133 131 126 117 100 95 93 88 81 79 76 72 65 60 59 59 66 64 65 60 55 51 50 48 45 44 43 40 38 34 29 31 32 29 25 20 18 21 18 18 15 16 16 16 15 11 9 9 8 6 4 0 358 358 355 353 352 351 349 348 346 345 343 342
149 149 142 140 139 143 142 141 140 138 134 139 137 135 139 136 137 123 127 131 135 150 152 150 127 133 133 120 102 95 88 84 74 65 65 64 64 67 69 66 61 60 60 62 56 50 47 44 41 39 36 33 27 24 21 18 14 10 16 15 14 13 12 13 13 12 9 9 9 7 5 2 0 358 356 354 353 352 350 348 347 345 344 343 341
146 154 149 144 147 150 148 143 146 141 138 144 144 148 149 148 152 142 137 131 132 139 167 282 145 142 130 130 140 137 136 110 93 78 75 74 76 75 73 73 60 57 62 65 64 58 52 48 45 41 38 33 29 25 23 16 4 3 14 12 10 11 9 10 11 10 8 8 8 6 4 1 359 357 355 353 352 351 349 348 347 345 344 342 340
124 135 142 138 142 140 133 132 136 152 147 150 157 155 154 156 154 148 140 139 157 171 256 261 176 152 163 204 163 177 153 165 135 107 90 79 75 83 82 82 83 80 74 69 67 64 62 57 50 45 39 35 28 22 21 10 1 7 12 9 8 10 8 9 10 9 8 6 5 4 2 359 358 355 354 353 351 350 348 347 345 344 343 341 339
139 149 152 134 120 138 142 140 149 162 156 153 162 162 162 162 154 152 162 152 158 158 181 220 243 328 181 141 149 208 206 135 143 134 156 121 83 82 77 85 88 81 82 79 76 72 69 62 56 49 40 34 26 20 17 12 6 8 8 5 7 10 8 7 9 8 7 5 4 1 360 357 356 354 353 351 350 347 347 344 344 343 340 337 337
143 150 150 145 137 151 144 149 155 161 166 161 157 154 162 162 165 162 165 172 153 155 154 191 246 268 304 332 348 343 140 155 176 151 129 94 114 99 90 93 97 89 85 88 81 77 68 66 59 55 42 32 24 17 14 15 8 11 10 359 5 9 8 8 7 6 5 3 2 359 358 356 354 353 350 350 347 346 343 342 341 338 338 337 334
146 158 156 159 139 151 148 159 162 161 158 155 159 165 163 164 165 171 167 158 159 157 162 164 170 218 306 336 21 327 141 151 198 124 161 157 171 155 127 114 98 96 94 89 89 92 81 76 67 59 48 32 23 16 12 8 7 7 7 358 4 6 7 7 6 4 2 360 359 357 355 354 352 351 349 347 344 343 341 340 339 338 337 336 336
151 156 152 154 147 145 149 154 157 154 153 163 160 159 160 156 166 164 158 166 174 166 161 166 179 162 153 134 108 108 121 5 137 192 168 161 163 141 155 151 127 98 89 95 103 93 93 79 59 46 43 34 23 17 9 4 3 2 5 357 359 3 5 4 4 2 359 358 357 354 352 351 350 348 346 344 342 341 339 339 338 337 336 335 336
144 157 153 150 147 151 154 158 158 160 165 165 161 158 162 162 167 167 175 179 187 172 159 174 188 153 149 136 139 135 121 85 80 341 179 176 158 175 167 159 159 125 112 106 94 89 83 75 61 45 41 34 24 16 8 6 4 360 359 353 356 359 1 1 1 360 357 356 355 352 349 349 347 346 344 342 341 340 339 339 338 336 335 333 334
154 164 151 147 147 146 154 164 166 164 168 160 147 154 159 166 174 178 180 181 184 173 173 165 165 146 164 151 150 140 140 146 168 160 86 293 186 181 171 172 185 149 134 124 120 115 103 93 76 53 38 32 20 10 7 9 9 1 350 348 352 355 358 359 358 357 354 353 351 349 347 347 346 344 343 341 340 339 338 338 337 334 334 332 333
170 166 157 142 150 158 163 167 162 157 155 152 166 167 168 173 177 179 181 181 176 166 142 144 148 155 164 173 166 169 171 181 173 182 178 166 152 153 157 185 195 161 134 118 129 124 107 95 78 54 39 31 18 4 5 358 14 2 346 343 346 353 357 356 354 352 350 349 348 348 348 347 345 342 340 340 340 339 338 338 336 333 333 335 336
181 168 162 147 155 164 153 148 155 161 163 167 167 169 169 170 172 178 177 163 132 146 150 148 150 153 171 177 167 152 124 149 151 162 176 171 183 165 166 150 189 207 116 120 121 140 135 110 86 69 32 25 14 358 356 351 9 1 345 336 340 350 356 353 351 348 347 347 348 348 348 345 343 342 340 341 340 339 338 337 335 334 333 334 334
188 180 168 154 156 154 159 168 169 172 168 166 163 158 159 164 165 153 132 143 156 151 152 146 147 158 163 91 85 93 70 55 94 112 96 121 164 154 133 161 201 181 166 169 182 157 167 150 118 107 61 16 359 354 352 353 350 354 344 328 336 349 351 349 347 346 346 346 346 347 347 344 342 342 341 340 339 338 338 336 336 334 333 335 333
178 180 162 150 158 166 165 167 168 160 154 148 146 147 146 153 133 128 120 120 117 106 99 108 87 68 100 121 86 79 71 58 67 92 115 145 171 182 155 168 210 193 146 193 170 179 171 167 171 173 183 356 345 353 355 348 344 350 339 324 330 345 345 345 346 346 346 345 345 345 345 343 342 341 340 339 339 339 338 337 335 334 333 333 332
174 154 151 154 154 159 164 157 150 150 148 141 135 139 132 117 118 109 102 98 96 94 97 101 100 103 86 94 96 82 80 68 79 81 76 36 337 177 189 193 193 203 210 191 178 231 152 155 166 199 195 274 335 345 355 346 352 345 333 323 326 338 342 343 344 345 345 344 345 344 344 341 340 339 338 339 339 338 336 335 334 333 333 332 331
157 143 152 150 153 155 150 148 147 142 140 137 139 136 128 122 113 111 100 81 107 102 111 107 102 100 98 93 97 95 92 92 78 77 61 32 16 47 294 264 264 241 199 212 205 190 141 167 162 179 191 237 324 333 331 314 357 341 324 323 327 333 341 339 339 342 344 344 344 344 341 339 338 339 339 339 337 336 334 334 333 332 331 329 330
145 142 147 147 150 151 150 144 142 135 131 132 128 122 120 117 119 120 120 125 119 121 125 121 111 106 97 96 107 118 110 102 101 99 90 100 73 42 0 313 322 280 262 258 220 192 156 182 208 162 170 284 325 332 335 333 3 342 328 319 323 324 334 333 333 339 340 343 344 341 339 338 339 339 339 339 337 334 333 333 333 332 331 331 330
148 148 146 146 142 147 139 139 132 134 131 127 120 122 121 116 122 124 131 134 124 118 112 114 114 107 110 112 120 122 118 128 122 114 133 121 119 92 64 0 306 276 302 287 288 112 143 162 209 175 176 305 321 328 330 314 360 336 329 317 315 322 325 322 324 333 336 340 342 340 339 339 338 339 340 338 335 334 333 333 333 331 332 332 331
155 154 146 145 147 144 138 136 137 134 130 128 129 128 131 130 133 130 136 136 127 121 116 115 114 127 137 138 134 126 138 135 135 143 135 139 122 132 124 210 229 292 287 284 270 74 114 216 145 142 243 305 322 313 314 310 330 329 316 313 307 317 315 310 318 324 326 337 340 339 338 338 338 339 339 336 336 335 334 333 332 332 333 331 330
164 163 154 150 150 146 145 140 138 133 131 134 140 140 140 138 137 134 138 133 121 122 126 122 129 147 151 150 150 146 151 151 155 153 149 127 125 154 174 181 158 202 242 257 266 275 115 185 321 150 139 307 310 302 313 310 306 291 309 303 303 307 306 313 312 318 323 334 338 338 339 337 337 338 338 337 336 334 333 332 332 332 330 330 329
162 167 155 147 146 143 139 139 138 140 141 145 148 147 138 130 122 123 131 129 127 128 135 138 145 157 162 155 152 149 156 166 162 153 143 139 156 180 176 186 180 175 210 242 255 273 247 123 207 242 270 313 301 311 310 311 307 302 296 292 295 300 301 301 308 313 322 330 335 338 337 336 336 337 337 337 335 334 333 332 333 332 331 330 330
162 163 153 138 139 137 134 138 143 144 145 144 146 143 135 130 125 123 136 136 136 136 143 155 164 168 165 156 152 151 164 163 151 151 149 159 178 182 185 191 199 184 207 223 263 265 269 211 214 198 214 244 295 310 312 309 301 300 293 289 282 286 293 297 303 312 318 324 333 335 335 333 334 335 334 334 333 332 332 333 332 331 330 330 329
154 153 146 139 136 138 140 146 147 148 150 147 151 147 145 144 144 145 145 148 146 149 160 166 170 165 165 162 154 153 165 162 160 165 167 179 184 191 186 192 203 199 195 227 246 261 267 272 281 270 271 280 294 306 306 293 290 285 282 279 279 282 284 289 294 304 312 319 327 332 331 329 330 331 331 330 330 331 332 333 332 331 330 331 332
158 149 144 143 143 149 150 154 156 154 153 152 152 153 149 150 148 146 146 146 145 153 163 167 170 173 171 155 163 168 170 171 173 179 188 190 192 194 188 196 201 204 204 206 236 254 274 278 266 250 290 303 298 297 293 285 276 275 276 276 269 268 276 283 293 296 311 312 317 321 324 325 327 329 328 328 326 326 327 328 330 332 332 333 333
159 152 153 157 156 158 160 162 161 160 158 156 155 152 149 147 144 143 147 150 158 168 175 174 173 169 166 170 169 172 176 181 183 189 190 191 196 195 196 192 200 200 193 212 219 237 251 264 277 280 278 280 282 283 277 279 286 282 272 264 264 271 271 282 289 287 292 294 304 312 321 324 324 326 325 323 322 322 323 325 328 331 333 333 331
158 162 162 164 163 161 163 164 163 159 157 158 155 151 147 146 147 149 152 158 163 167 169 161 167 176 173 183 180 178 185 193 194 191 189 193 194 200 196 197 196 198 206 214 217 225 243 259 268 280 277 275 284 277 265 262 282 289 283 272 261 261 268 283 289 294 296 286 295 315 322 323 320 318 317 316 316 318 321 324 327 329 330 330 329
161 162 166 162 166 166 167 163 162 158 153 147 148 149 151 156 157 156 157 158 158 157 159 167 176 187 194 192 187 188 195 201 198 193 189 190 195 200 200 197 198 197 211 212 215 224 237 253 264 267 274 268 260 275 271 266 269 268 278 289 285 275 272 280 296 301 294 286 266 279 304 314 312 312 312 312 312 314 319 322 324 327 327 328 329
167 168 168 170 168 166 158 156 157 152 147 147 152 154 157 161 162 159 156 152 154 160 166 173 183 199 202 202 199 202 206 207 204 199 190 191 191 199 199 193 194 197 210 212 212 222 230 244 255 262 265 269 269 262 259 251 259 260 251 294 297 304 299 296 293 297 301 289 296 298 305 310 311 308 311 313 312 314 317 318 319 322 324 327 328
169 170 168 165 161 163 161 163 157 158 163 171 163 162 161 165 163 159 157 159 162 165 172 183 195 201 205 207 211 211 214 216 212 207 198 190 184 197 199 191 199 198 208 209 211 218 231 235 248 252 256 258 257 261 262 256 261 280 298 294 289 294 301 300 292 288 288 299 300 299 302 317 313 308 311 314 314 317 311 315 317 323 326 326 328
170 170 170 171 173 169 164 167 165 170 180 159 177 170 161 157 166 162 158 163 167 169 173 182 198 205 209 208 215 216 214 213 213 211 208 200 203 204 197 194 194 199 198 200 209 212 217 227 235 239 249 253 252 252 262 264 270 277 282 289 294 305 307 295 291 268 300 304 304 301 302 305 306 298 303 312 316 315 314 315 319 320 322 325 328
173 169 168 173 177 174 171 168 173 179 163 171 178 178 175 165 160 162 164 170 169 171 177 185 195 202 206 209 213 205 212 224 224 219 218 217 215 217 217 210 202 194 185 195 211 205 212 225 227 231 241 252 253 256 256 262 263 266 278 290 293 301 304 311 305 310 271 331 310 306 299 297 296 294 294 300 312 317 314 309 313 317 321 325 327
173 167 177 181 175 172 170 171 176 177 176 180 180 181 179 177 179 171 170 167 171 183 186 195 203 197 198 199 204 196 207 211 209 210 217 220 220 220 221 221 221 221 212 197 192 204 207 216 228 227 229 242 251 248 252 255 262 269 275 283 285 290 292 289 290 291 310 329 314 306 298 290 298 291 287 295 310 315 311 308 311 317 321 325 326
164 171 182 169 173 175 177 181 186 181 177 181 182 181 182 184 186 178 178 175 173 185 187 198 204 202 196 195 200 204 206 196 201 210 209 213 218 221 221 224 228 227 226 224 222 215 202 217 229 235 228 244 252 250 245 252 264 268 276 274 275 280 280 281 284 292 301 322 308 298 297 303 288 292 298 300 305 314 312 309 313 317 318 322 325
171 175 171 173 177 183 186 187 184 163 179 189 188 186 188 189 189 185 180 181 191 188 197 201 203 204 199 198 201 201 198 189 204 206 209 210 206 210 216 220 226 225 226 226 223 222 221 221 223 233 236 230 245 248 247 237 242 260 272 272 272 270 269 272 285 288 291 295 292 302 296 295 312 311 301 304 311 309 308 310 312 314 316 319 325
174 172 169 173 182 177 183 184 178 187 203 196 194 193 193 192 191 189 181 192 202 210 211 208 205 205 206 206 208 207 196 196 200 198 201 205 202 203 208 216 224 227 222 221 220 218 218 222 226 234 239 238 243 244 244 244 250 261 264 260 263 268 276 285 282 276 272 269 276 283 283 306 312 301 300 310 312 302 305 312 311 312 315 320 321
169 164 175 174 175 179 181 183 192 201 197 195 200 199 197 197 194 195 196 203 209 212 216 215 213 214 214 212 211 213 208 203 197 193 197 195 196 204 208 216 224 228 230 226 224 222 222 222 224 225 229 232 232 234 239 242 252 250 247 252 251 260 278 281 282 277 265 271 260 273 284 292 311 304 305 309 305 300 306 303 310 316 322 321 320
169 174 182 180 182 178 184 189 195 200 195 196 200 203 203 202 196 202 206 208 210 213 222 219 218 216 216 217 219 219 215 214 195 193 196 195 197 201 198 213 221 232 238 231 231 233 234 237 238 235 235 235 235 239 243 243 235 215 216 235 245 261 269 281 282 277 276 284 285 277 283 293 312 316 307 307 303 296 291 293 303 327 324 321 319
183 180 174 175 177 181 186 190 192 193 201 198 202 207 208 207 204 206 213 208 206 214 224 220 212 217 222 216 223 227 225 226 192 199 203 200 202 195 199 211 217 230 238 226 230 229 234 239 241 241 243 244 247 248 246 246 232 220 227 250 273 277 271 276 278 286 289 287 277 268 274 279 313 319 310 305 296 268 280 289 316 322 321 321 320
177 155 169 165 171 183 189 193 193 200 206 198 200 207 209 210 208 213 219 218 213 220 217 221 217 220 226 210 211 220 228 225 201 207 210 206 210 196 202 200 224 231 234 206 218 215 214 222 234 234 240 240 241 244 242 220 206 217 233 247 266 248 263 271 269 287 293 282 150 134 291 301 323 315 330 323 311 291 242 318 319 315 320 319 320